GW3984 Weather Reports


Display with metric or nautical units.
time (UTC)temp
F
wind
direction
speed
MPH
gust
MPH
rain 1hr
in
rain 24hr
in
rain mn
in
humidity
%
barometer
mb
20260510163520 82 169 2.0 6.0 0.00 0.00 0.00 70 1014.1
20260510163008 82 165 1.0 8.0 0.00 0.00 0.00 67 1014.7
20260510162538 84 82 1.0 8.0 0.00 0.00 0.00 66 1014.1
20260510161541 82 145 1.0 8.0 0.00 0.00 0.00 69 1014.0
20260510161503 82 135 2.0 10.0 0.00 0.00 0.00 71 1014.8
20260510160539 82 128 1.0 7.0 0.00 0.00 0.00 71 1013.8
20260510160023 81 130 1.0 10.0 0.00 0.00 0.00 72 1014.4
20260510155533 81 134 1.0 7.0 0.00 0.00 0.00 72 1013.8
20260510154522 82 122 3.0 8.0 0.00 0.00 0.00 72 1014.3
20260510153433 80 202 1.0 5.0 0.00 0.00 0.00 74 1013.6
20260510153021 79 140 3.0 6.0 0.00 0.00 0.00 74 1014.2
20260510152423 80 119 1.0 4.0 0.00 0.00 0.00 74 1013.6
20260510151515 79 153 2.0 7.0 0.00 0.00 0.00 74 1014.2
20260510151356 80 154 1.0 6.0 0.00 0.00 0.00 75 1013.5
20260510150345 79 113 1.0 6.0 0.00 0.00 0.00 75 1013.3
20260510150015 78 127 4.0 8.0 0.00 0.00 0.00 76 1013.9
20260510145403 79 46 0.0 4.0 0.00 0.00 0.00 77 1013.3
20260510144513 78 106 0.0 4.0 0.00 0.00 0.00 77 1013.9
20260510144404 79 155 0.0 4.0 0.00 0.00 0.00 77 1013.2
20260510143407 78 202 0.0 3.0 0.00 0.00 0.00 78 1013.1
20260510143008 77 175 1.0 7.0 0.00 0.00 0.00 79 1013.7
20260510142403 77 214 0.0 4.0 0.00 0.00 0.00 82 1013.0
20260510141509 76 308 0.0 3.0 0.00 0.00 0.00 80 1013.7
20260510141330 77 61 0.0 3.0 0.00 0.00 0.00 82 1013.0
20260510140350 76 353 0.0 3.0 0.00 0.00 0.00 82 1012.8
20260510140024 75 254 0.0 4.0 0.00 0.00 0.00 82 1013.4
20260510135358 75 82 0.0 3.0 0.00 0.00 0.00 83 1012.7
20260510134524 74 9 0.0 3.0 0.00 0.00 0.00 83 1013.4
20260510134327 75 317 0.0 2.0 0.00 0.00 0.00 83 1012.5
20260510133317 73 53 0.0 0.0 0.00 0.00 0.00 85 1012.5
20260510133022 73 340 0.0 2.0 0.00 0.00 0.00 84 1013.2
20260510132332 73 193 0.0 1.0 0.00 0.00 0.00 85 1012.4
20260510131519 72 232 0.0 2.0 0.00 0.00 0.00 86 1013.1
20260510131334 72 269 0.0 1.0 0.00 0.00 0.00 86 1012.4
20260510130307 71 321 0.0 0.0 0.00 0.00 0.00 87 1012.1
20260510130026 70 318 0.0 2.0 0.00 0.00 0.00 87 1012.8
20260510125310 70 314 0.0 1.0 0.00 0.00 0.00 88 1012.0
20260510124512 69 323 0.0 2.0 0.00 0.00 0.00 88 1012.5
20260510123013 68 304 0.0 2.0 0.00 0.00 0.00 89 1012.4
20260510122008 68 1 0.0 0.0 0.00 0.00 0.00 89 1011.7
20260510121510 68 343 0.0 2.0 0.00 0.00 0.00 89 1012.3
20260510120947 68 329 0.0 0.0 0.00 0.00 0.00 89 1011.6
20260510120025 67 65 0.0 1.0 0.00 0.00 0.00 88 1012.3
20260510120008 68 60 0.0 0.0 0.00 0.00 0.00 88 1011.6
20260510115019 68 90 0.0 0.0 0.00 0.00 0.00 87 1011.7
20260510114528 68 101 0.0 2.0 0.00 0.00 0.00 87 1012.2
20260510113945 68 110 0.0 2.0 0.00 0.00 0.00 87 1011.6
20260510113034 68 161 0.0 3.0 0.00 0.00 0.00 86 1012.1
20260510113003 68 160 0.0 2.0 0.00 0.00 0.00 86 1011.5
20260510112019 69 53 0.0 1.0 0.00 0.00 0.00 86 1011.6
20260510111521 68 189 0.0 3.0 0.00 0.00 0.00 85 1012.2
20260510111015 69 259 0.0 0.0 0.00 0.00 0.00 85 1011.5
20260510110031 69 84 1.0 3.0 0.00 0.00 0.00 84 1012.2
20260510105953 69 79 0.0 2.0 0.00 0.00 0.00 85 1011.5
20260510104937 69 187 0.0 2.0 0.00 0.00 0.00 86 1011.3
20260510104519 68 191 0.0 3.0 0.00 0.00 0.00 86 1012.0
20260510103944 68 188 0.0 2.0 0.00 0.00 0.00 88 1011.4
20260510103019 67 152 0.0 2.0 0.00 0.00 0.00 89 1012.0
20260510102943 68 150 0.0 1.0 0.00 0.00 0.00 89 1011.4
20260510101949 66 93 0.0 1.0 0.00 0.00 0.00 91 1011.6
20260510101514 65 107 0.0 0.0 0.00 0.00 0.00 90 1012.3
20260510100026 65 107 0.0 0.0 0.00 0.00 0.00 90 1012.3
20260510095844 66 104 0.0 0.0 0.00 0.00 0.00 90 1011.7
20260510094855 66 104 0.0 0.0 0.00 0.00 0.00 90 1011.8
20260510094528 66 107 0.0 0.0 0.00 0.00 0.00 89 1012.4
20260510093840 66 104 0.0 0.0 0.00 0.00 0.00 89 1011.8
20260510093042 66 107 0.0 0.0 0.00 0.00 0.00 89 1012.4
20260510092830 67 104 0.0 0.0 0.00 0.00 0.00 90 1011.7
20260510091824 67 104 0.0 0.0 0.00 0.00 0.00 89 1011.6
20260510091528 66 107 0.0 0.0 0.00 0.00 0.00 88 1012.2
20260510090845 67 104 0.0 0.0 0.00 0.00 0.00 89 1011.5
20260510090038 67 107 0.0 0.0 0.00 0.00 0.00 88 1012.1
20260510085852 67 104 0.0 0.0 0.00 0.00 0.00 88 1011.6
20260510084908 68 104 0.0 0.0 0.00 0.00 0.00 87 1011.6
20260510084529 68 107 0.0 0.0 0.00 0.00 0.00 86 1012.1
20260510083856 69 104 0.0 0.0 0.00 0.00 0.00 86 1011.5
20260510083020 69 107 0.0 2.0 0.00 0.00 0.00 84 1012.0
20260510082857 70 104 0.0 0.0 0.00 0.00 0.00 85 1011.4
20260510081518 69 91 0.0 2.0 0.00 0.00 0.00 83 1011.9
20260510080740 70 89 0.0 0.0 0.00 0.00 0.00 84 1011.3
20260510080016 70 93 0.0 2.0 0.00 0.00 0.00 82 1011.9
20260510075724 71 89 0.0 1.0 0.00 0.00 0.00 82 1011.2
20260510074744 72 103 0.0 1.0 0.00 0.00 0.00 81 1011.3
20260510074512 72 105 0.0 1.0 0.00 0.00 0.00 80 1012.0
20260510073010 72 123 0.0 2.0 0.00 0.00 0.00 79 1012.0
20260510072608 73 139 0.0 0.0 0.00 0.00 0.00 79 1011.3
20260510071539 73 108 0.0 1.0 0.00 0.00 0.00 79 1011.3
20260510071507 73 111 0.0 2.0 0.00 0.00 0.00 78 1012.0
20260510070542 73 164 0.0 0.0 0.00 0.00 0.00 78 1011.3
20260510070007 73 114 0.0 2.0 0.00 0.00 0.00 77 1011.9
20260510064530 74 175 0.0 4.0 0.00 0.00 0.00 76 1012.0
20260510064343 74 175 0.0 3.0 0.00 0.00 0.00 77 1011.4
20260510063319 74 107 0.0 4.0 0.00 0.00 0.00 77 1011.3
20260510063022 74 177 0.0 5.0 0.00 0.00 0.00 76 1011.9
20260510062301 74 124 0.0 1.0 0.00 0.00 0.00 77 1011.3
20260510061522 74 180 0.0 3.0 0.00 0.00 0.00 76 1012.1
20260510060146 74 126 0.0 0.0 0.00 0.00 0.00 77 1011.6
20260510060020 74 169 0.0 3.0 0.00 0.00 0.00 77 1012.2
20260510055146 74 119 0.0 0.0 0.00 0.00 0.00 78 1011.5
20260510054520 74 150 0.0 3.0 0.00 0.00 0.00 78 1012.0
20260510054209 74 72 0.0 1.0 0.00 0.00 0.00 79 1011.3
20260510053220 73 136 0.0 0.0 0.00 0.00 0.00 81 1011.3
20260510053012 73 125 0.0 2.0 0.00 0.00 0.00 80 1011.9
20260510052212 73 127 0.0 0.0 0.00 0.00 0.00 80 1011.2
20260510051510 73 129 0.0 0.0 0.00 0.00 0.00 80 1011.9
20260510051219 73 127 0.0 0.0 0.00 0.00 0.00 80 1011.2
20260510050235 73 105 0.0 0.0 0.00 0.00 0.00 81 1011.1
20260510050006 73 109 0.0 2.0 0.00 0.00 0.00 82 1011.8
20260510044533 71 109 0.0 2.0 0.00 0.00 0.00 84 1011.7
20260510044117 71 105 0.0 1.0 0.00 0.00 0.00 85 1011.0
20260510043113 70 130 0.0 0.0 0.00 0.00 0.00 85 1011.0
20260510043026 70 132 0.0 0.0 0.00 0.00 0.00 85 1011.8
20260510042051 70 130 0.0 0.0 0.00 0.00 0.00 85 1010.9
20260510041530 70 132 0.0 0.0 0.00 0.00 0.00 84 1011.6
20260510040022 70 132 0.0 0.0 0.00 0.00 0.00 83 1011.4
20260510035924 71 130 0.0 0.0 0.00 0.00 0.00 84 1010.7
20260510034911 71 130 0.0 0.0 0.00 0.00 0.00 83 1010.7
20260510034516 71 132 0.0 0.0 0.00 0.00 0.00 82 1011.4
20260510033903 72 130 0.0 0.0 0.00 0.00 0.00 82 1010.6
20260510033012 72 132 0.0 0.0 0.00 0.00 0.00 81 1011.2
20260510032920 72 130 0.0 0.0 0.00 0.00 0.00 81 1010.5
20260510031930 73 130 0.0 0.0 0.00 0.00 0.00 81 1010.4
20260510031514 72 132 0.0 0.0 0.00 0.00 0.00 80 1011.1
20260510030937 73 130 0.0 0.0 0.00 0.00 0.00 80 1010.4
20260510030008 73 132 0.0 0.0 0.00 0.00 0.00 78 1011.0
20260510025914 74 130 0.0 0.0 0.00 0.00 0.00 78 1010.3
20260510024850 75 130 0.0 0.0 0.00 0.00 0.00 77 1010.2
20260510024526 75 132 0.0 0.0 0.00 0.00 0.00 75 1010.9
20260510023906 75 130 0.0 0.0 0.00 0.00 0.00 75 1010.2
20260510023022 76 132 0.0 2.0 0.00 0.00 0.00 73 1010.8
20260510022915 76 130 0.0 0.0 0.00 0.00 0.00 73 1010.0
20260510021841 77 131 0.0 1.0 0.00 0.00 0.00 72 1010.0
20260510021528 77 134 0.0 2.0 0.00 0.00 0.00 71 1010.7
20260510020834 77 148 0.0 0.0 0.00 0.00 0.00 71 1009.8
20260510020026 78 128 0.0 2.0 0.00 0.00 0.00 69 1010.4
20260510015851 78 125 0.0 1.0 0.00 0.00 0.00 70 1009.7
20260510014908 78 110 0.0 1.0 0.00 0.00 0.00 69 1009.6
20260510014518 78 118 0.0 4.0 0.00 0.00 0.00 68 1010.3
20260510013920 79 119 0.0 1.0 0.00 0.00 0.00 69 1009.4
20260510013017 79 132 0.0 3.0 0.00 0.00 0.00 68 1009.9
20260510011815 80 139 0.0 2.0 0.00 0.00 0.00 66 1009.1
20260510011515 79 156 1.0 4.0 0.00 0.00 0.00 65 1009.8
20260510010806 80 148 0.0 0.0 0.00 0.00 0.00 65 1008.9
20260510010012 80 161 2.0 4.0 0.00 0.00 0.00 63 1009.7
20260510005748 80 146 0.0 1.0 0.00 0.00 0.00 63 1008.7
20260510004753 80 123 0.0 1.0 0.00 0.00 0.00 62 1008.6
20260510004528 80 142 0.0 2.0 0.00 0.00 0.00 61 1009.3
20260510003743 81 129 0.0 0.0 0.00 0.00 0.00 66 1008.6
20260510003026 81 186 0.0 2.0 0.00 0.00 0.00 66 1009.3
20260510002734 82 146 0.0 1.0 0.00 0.00 0.00 68 1008.4
20260510001706 81 113 0.0 1.0 0.00 0.00 0.00 73 1008.2
20260510001526 80 110 0.0 2.0 0.00 0.00 0.00 73 1009.2
20260510000707 81 91 0.0 0.0 0.00 0.00 0.00 71 1008.2
20260510000022 81 94 0.0 0.0 0.00 0.00 0.00 69 1009.0
20260509235713 81 91 0.0 0.0 0.00 0.00 0.00 70 1008.1
20260509234640 83 91 0.0 1.0 0.00 0.00 0.00 64 1007.9
20260509234521 83 94 0.0 2.0 0.00 0.00 0.00 63 1008.7
20260509233624 83 121 0.0 0.0 0.00 0.00 0.00 63 1008.0
20260509233024 83 114 0.0 4.0 0.00 0.00 0.00 63 1009.0
20260509232615 84 140 0.0 4.0 0.00 0.00 0.00 62 1008.1
20260509231606 85 124 0.0 3.0 0.00 0.00 0.00 61 1008.2
20260509231516 84 117 0.0 2.0 0.00 0.00 0.00 61 1009.1
20260509230538 85 229 0.0 0.0 0.00 0.00 0.00 62 1008.2
20260509230017 86 306 0.0 3.0 0.00 0.00 0.00 61 1009.0
20260509224513 86 65 0.0 2.0 0.00 0.00 0.00 56 1008.9
20260509224330 86 144 0.0 1.0 0.00 0.00 0.00 57 1008.1
20260509223314 87 60 0.0 0.0 0.00 0.00 0.00 58 1008.1
20260509223014 86 134 0.0 2.0 0.00 0.00 0.00 54 1009.0
20260509222251 87 113 0.0 1.0 0.00 0.00 0.00 56 1008.1
20260509221511 87 130 0.0 3.0 0.00 0.00 0.00 54 1008.9
20260509221309 88 217 0.0 0.0 0.00 0.00 0.00 54 1008.0
20260509220324 91 273 0.0 0.0 0.00 0.00 0.00 49 1008.0
20260509220031 90 275 1.0 4.0 0.00 0.00 0.00 48 1008.9
20260509215255 89 304 0.0 3.0 0.00 0.00 0.00 53 1008.1
20260509214523 90 214 1.0 4.0 0.00 0.00 0.00 52 1009.0
20260509214230 90 97 0.0 1.0 0.00 0.00 0.00 50 1008.1
20260509213213 91 59 0.0 3.0 0.00 0.00 0.00 51 1008.1
20260509213028 90 78 1.0 4.0 0.00 0.00 0.00 48 1009.0
20260509212144 90 345 0.0 2.0 0.00 0.00 0.00 53 1008.3
20260509211519 90 232 1.0 3.0 0.00 0.00 0.00 50 1009.0
20260509211147 91 295 0.0 2.0 0.00 0.00 0.00 51 1008.2
20260509210142 88 323 0.0 1.0 0.00 0.00 0.00 54 1008.4
20260509210016 88 113 0.0 2.0 0.00 0.00 0.00 54 1009.3
20260509205146 89 302 0.0 1.0 0.00 0.00 0.00 55 1008.6
20260509204530 89 298 0.0 4.0 0.00 0.00 0.00 53 1009.6
20260509204145 91 139 0.0 3.0 0.00 0.00 0.00 53 1008.9
20260509203030 90 95 1.0 4.0 0.00 0.00 0.00 50 1009.6
20260509201930 89 338 0.0 5.0 0.00 0.00 0.00 57 1009.0
20260509201512 89 54 1.0 3.0 0.00 0.00 0.00 54 1009.8
20260509200026 87 115 2.0 4.0 0.00 0.00 0.00 60 1010.1
20260509195806 87 77 0.0 1.0 0.00 0.00 0.00 59 1009.5
20260509194826 87 191 0.0 2.0 0.00 0.00 0.00 60 1009.6
20260509194527 87 148 0.0 3.0 0.00 0.00 0.00 57 1010.4
20260509193756 90 315 0.0 2.0 0.00 0.00 0.00 55 1009.8
20260509193029 89 305 1.0 2.0 0.00 0.00 0.00 60 1010.7
20260509191539 90 298 0.0 3.0 0.00 0.00 0.00 57 1010.1
20260509191522 90 306 1.0 3.0 0.00 0.00 0.00 56 1011.0
20260509190535 89 113 0.0 4.0 0.00 0.00 0.00 58 1010.3
20260509190022 90 219 0.0 6.0 0.00 0.00 0.00 59 1011.0
20260509185502 90 116 0.0 4.0 0.00 0.00 0.00 60 1010.3
20260509184527 90 130 0.0 3.0 0.00 0.00 0.00 56 1011.1
20260509184452 91 143 0.0 2.0 0.00 0.00 0.00 56 1010.3
20260509183516 90 314 0.0 2.0 0.00 0.00 0.00 57 1010.4
20260509183016 88 267 0.0 3.0 0.00 0.00 0.00 58 1011.2
20260509181515 86 298 0.0 3.0 0.00 0.00 0.00 60 1011.6
20260509181354 87 200 0.0 5.0 0.00 0.00 0.00 60 1010.9
20260509180344 89 197 0.0 5.0 0.00 0.00 0.00 57 1010.9
20260509180026 88 95 1.0 7.0 0.00 0.00 0.00 60 1011.6
20260509175358 88 274 0.0 3.0 0.00 0.00 0.00 60 1011.0
20260509174526 88 275 1.0 4.0 0.00 0.00 0.00 59 1011.8
20260509174344 88 324 0.0 2.0 0.00 0.00 0.00 61 1011.2
20260509173343 87 193 0.0 3.0 0.00 0.00 0.00 65 1011.2
20260509173025 87 199 1.0 3.0 0.00 0.00 0.00 63 1011.9
20260509172332 86 200 0.0 3.0 0.00 0.00 0.00 66 1011.2
20260509171524 85 280 2.0 4.0 0.00 0.00 0.00 64 1011.9
20260509170301 86 105 0.0 1.0 0.00 0.00 0.00 66 1011.3
20260509170022 87 290 0.0 2.0 0.00 0.00 0.00 67 1012.0
20260509165255 86 294 0.0 2.0 0.00 0.00 0.00 71 1011.3
20260509164519 84 284 1.0 3.0 0.00 0.00 0.00 67 1012.2
20260509164247 85 283 0.0 2.0 0.00 0.00 0.00 70 1011.4